Location: Eisingen in Unterfranken
(49.7591°N, 9.8347°E)
Time: 13:40:17
(UTC+01:00)

N. Korean satellite - Pass Details

Date: 05 December 2022
Orbit: 407 x 441 km, 97.3° (Epoch: 05 February)

Event Time Altitude Azimuth Distance (km) Brightness Sun altitude
Rises 05:17:21 0° 19° (NNE) 2,524 10.4 -25.4°
Reaches altitude 10° 05:19:32 10° 28° (NNE) 1,637 9.5 -25.1°
Maximum altitude 05:22:49 37° 97° (E) 747 8.0 -24.5°
Drops below altitude 10° 05:26:02 10° 166° (SSE) 1,601 9.4 -24.0°
Sets 05:28:09 0° 175° (S) 2,459 10.3 -23.7°
